Weather Roundup
Issued by NWS

Home | Current Version | Previous Version | Text Only | Print | Product List | Glossary On
Versions: 1 2 3 4 5 6 7 8 9 10 11 12 13 14 15 16 17 18 19 20 21 22 23 24 25 26 27 28 29 30 31 32 33 34 35 36 37 38 39 40 41 42 43 44 45 46 47 48 49 50
000
NZUS93 KARX 212110
HRRWXR

CURRENT HOURLY OBSERVATIONS ACROSS
MUCH OF THE UPPER MISSISSIPPI VALLEY
NATIONAL WEATHER SERVICE LA CROSSE WI
400 PM CDT TUE MAY 21 2019


...SOUTHEAST MINNESOTA...


CITY           SKY/WX    TMP DP  RH WIND       PRES   REMARKS
ROCHESTER      LGT RAIN  47  41  80 E17G26    29.92F
ROCHESTER/MAYO CLOUDY    48  41  76 E12G22    29.93F
WINONA         DRIZZLE   52  41  66 E17       29.99R
AUSTIN         RAIN      48  39  71 E26G33    29.86F
ALBERT LEA     LGT RAIN  45  45 100 E22G31    29.85F
DODGE CENTER   RAIN      46  41  81 E23       29.91F
PRESTON        LGT RAIN  46  41  81 E14G22    29.92F
OWATONNA       HVY RAIN  48  43  81 E24G33    29.90F
FARIBAULT      NOT AVBL
$$

...ELSEWHERE IN MINNESOTA...


CITY           SKY/WX    TMP DP  RH WIND       PRES   REMARKS
MINNEAPOLIS    CLOUDY    59  36  42 E23G31    29.93F
INTNL FALLS    FAIR      69  33  26 NE8G21    30.06F
DULUTH         FAIR      62  35  36 E23G31    30.05F
RED WING       DRIZZLE   57  28  33 SE18G30   29.95S
REDWOOD FALLS  LGT RAIN  54  37  52 E20G40    29.82F
MANKATO        NOT AVBL
WORTHINGTON    LGT RAIN  45  42  89 E29G37    29.73S
FAIRMONT       LGT RAIN  46  44  93 E35G43    29.75F
$$

...SOUTHWEST WISCONSIN...


CITY           SKY/WX    TMP DP  RH WIND       PRES   REMARKS
LA CROSSE      LGT RAIN  55  37  50 E13G28    29.97F
PRAIRIE DU CHI RAIN      52  39  62 E15G24    29.96R
BOSCOBEL       LGT RAIN  55  39  54 E10G23    29.96
LONE ROCK      CLOUDY    54  39  57 E21G33    29.99F
PLATTEVILLE    PTSUNNY   53  45  74 E28G38    29.92F
FORT MC COY    CLOUDY    54  37  51 E17G29    30.01S
CAMP DOUGLAS   CLOUDY    55  37  50 E18G30    30.01F
MAUSTON-NEW LI CLOUDY    55  34  45 E16G23    30.01F
VIROQUA        CLOUDY    51  39  62 E16G28    29.96F
WIS DELLS      CLOUDY    53  35  51 E14G23    30.03F
$$

...ELSEWHERE IN WISCONSIN...


CITY           SKY/WX    TMP DP  RH WIND       PRES   REMARKS
MILWAUKEE      CLOUDY    50  39  66 E10       30.11F
MADISON        CLOUDY    52  38  58 SE17G28   30.04F
GREEN BAY      FAIR      59  37  44 E13       30.13F
EAU CLAIRE     FAIR      58  35  42 E23G35    30.00F
BLACK RVR FLS  LGT RAIN  54  39  55 E12G25    30.01F
MEDFORD        FAIR      56  34  42 E15G22    30.05F
WAUSAU         FAIR      57  33  40 E21G29    30.07F
WIS RAPIDS     PTSUNNY   57  33  40 E20G28    30.07F
MARSHFIELD     FAIR      56  36  47 E15G30    30.04F
RICE LAKE      FAIR      62  33  33 E22G29    30.02F
$$

...NORTHEAST IOWA...


CITY           SKY/WX    TMP DP  RH WIND       PRES   REMARKS
WATERLOO       LGT RAIN  51  47  86 E24G40    29.76F FOG
DUBUQUE        CLOUDY    54  44  69 E22G35    29.89F
DECORAH          N/A     46  43  87 E16G23    29.92F
MASON CITY     LGT RAIN  46  44  93 E33G46    29.78F FOG
CHARLES CITY   FAIR      46  45  93 E29G39    29.81F FOG
OELWEIN        FAIR      48  48 100 E28G37    29.80F FOG
$$

...ELSEWHERE IN IOWA...


CITY           SKY/WX    TMP DP  RH WIND       PRES   REMARKS
DES MOINES     CLOUDY    49  46  90 E17G36    29.62F
IOWA CITY      LGT RAIN  52  48  86 E16G29    29.81F
FORT DODGE     RAIN      48  46  93 E33G44    29.66F FOG
MARSHALLTOWN   LGT RAIN  49  47  93 E29G48    29.68F
CEDAR RAPIDS   LGT RAIN  49  48  97 E21G35    29.80F FOG
$$

...NORTHERN ILLINOIS...


CITY           SKY/WX    TMP DP  RH WIND       PRES   REMARKS
CHICAGO-OHARE  CLOUDY    51  40  65 E23G36    30.05F
CHICAGO-MIDWAY CLOUDY    53  42  66 E20G33    30.04F
MOLINE         CLOUDY    56  48  74 E26G36    29.83F
ROCKFORD       CLOUDY    54  43  66 E16G31    30.01F
PEORIA         CLOUDY    58  48  69 E18G33    29.84F
$$

NOTE: "FAIR" INDICATES FEW OR NO CLOUDS BELOW 12,000 FEET WITH NO
SIGNIFICANT WEATHER AND/OR OBSTRUCTIONS TO VISIBILITY. WIND
SPEEDS ARE IN MILES-PER-HOUR.




USA.gov is the U.S. government's official web portal to all federal, state and local government web resources and services.